"Pseudo-MPEC" for P11DAze

Created 2023 Mar 20 10:22:12 UT using Find_Orb

Click here for an explanation of pseudo-MPECs

 
 Astrometry: 
     P11DAze* C2023 03 18!(o]t8S2D1ax3#OLJ*SXi)sp/6xZ\^u7@DNn]([9AYE.RIm`[\CTF51
     P11DAze* C2023 03 18-RD+3ZCbqc-F2DN8%AZ^!YFT(9ncP7=]C;B0vfsm)Zm;$uT]phArF51
     P11DAze  C2023 03 18!A)5tFee=bXDsT0Fno/^E=A;_g`]mCrAi7`,9Ie8BsHBuHE`jC[_F51
     P11DAze  C2023 03 18]wMC4tga0R=l%\*GU,i+#kP)+tf3==`a,5(mQ8E-/k3kO4!\X,9#F51
     P11DAze  C2023 03 186vc0VOwtG^5AstrometrySM=$/Ee?kxd@geyKoakeKHoIvpa1I4(F51
     P11DAze  C2023 03 18IlkHW0redacted;90OZQ:6P@,,[QL-Su0OkK::_B=+hebx%L'9#vF51
     P11DAze  C2023 03 18O-5:wg@^tclick;nJ,?X;=c)([a,c0_*qU?eR`+k[__,Y#,7#UG`F51
     P11DAze  C2023 03 185)!AFQ_`#:%hF@N7!NQ`[0=A!6y0here]_E@`g@r%u?\fl#forW@F52
     P11DAze  C2023 03 18Tq!4wtJv*b5P\O=#l5(HeH*)h`uE=;4qr#Hl'xwi3'LbDO.31WRYF52
     P11DAze  C2023 03 18;[GV0msLGbws?EfFC=j0DLBE[/Vlbj-Ck=.8749S13r0Sr-Jb=nXF52
     P11DAze  C2023 03 18ij#$y4pa$X_Iumbf[!slhEVAckZ99#)p(]*Rxb072`^NL?OF1kg9F52
     P11DAze |C2023 03 19c*_Ddx]h\SJs8qg/fMG:SgDSRbytUb$:,CmCe)Q5i7si$\0+*J_K807
     P11DAze |C2023 03 19n8#07wfTZ:EM^0V5yXX6,GoBWT\9QP,U;wR'Q.;l-i*=ysp2Q-rR807
     P11DAze |C2023 03 19V:00uF$LP0[k-4L9Bh+P1explanationiGdbv9%nk5cUy^!WdRgF807
     P11DAze KC2023 03 20wO4Jh0lM`#bg$Zq9fb(Or'gs_,%R#/f'QvsX7PtS=Rg[IfbQ^is1H21
     P11DAze KC2023 03 20(%7c1nLwu$MH\x1Koc8+gr-SZ^k$1`6mIGavx6T^6D\!p,e.7,[DH21
     P11DAze KC2023 03 20_;\*?n,Z*),aY*R306$/M%%YDgJPniPs7Dq)ZU5uhsM^ZmE9LX^mH21
     P11DAze |C2023 03 20(hpvXh+%KeQ.E`CANpn*Tf!1XMipAq^kGpYN8Sgia3)^.XTbci'd807
     P11DAze |C2023 03 20T98D/3om$q]y@u,a?GNH+\Z99wV\XA6q34ZF*M$UE;T?j`'/-U2l807
     P11DAze |C2023 03 20lF_+CA!]WLpl,pP4N+Yi9yYyZC`i/,[Uk@y-aTDs':e3d;G8[[9Z807

Station data:
(807) Cerro Tololo Observatory, La Serena  (S30.169133 W70.805900)  Chile.
   Observer R. Holmes. 0.61-m f/6.5 astrograph + CCD.
(F51) Pan-STARRS 1, Haleakala  (N20.707234 W156.255910)  US/Hawaii.
   Observers J. Bulger, T. Lowe, A. Schultz, M. Willman. Measurers K.
   Chambers, S. Chastel, T. de Boer, L. Denneau, J. Fairlamb, H. Flewelling,
   M. Huber, C.-C. Lin, E. Magnier, Y. Ramanjooloo, R. Wainscoat, R. Weryk.
   1.8-m Ritchey-Chrétien + CCD.
(F52) Pan-STARRS 2, Haleakala  (N20.707382 W156.255910)  US/Hawaii.
   Observers J. Bulger, T. Dukes, T. Lowe, A. Schultz, M. Willman. Measurers
   K. Chambers, S. Chastel, T. de Boer, L. Denneau, J. Fairlamb, H.
   Flewelling, M. Huber, C.-C. Lin, E. Magnier, Y. Ramanjooloo, R. Wainscoat,
   R. Weryk. 1.8-m Ritchey-Chrétien + CCD.
(H21) Astronomical Research Observatory, Westfield  (N39.483054 W87.968270)
   US/Illinois.  Observer R. Holmes. Measurers S. Foglia, L. Buzzi, T.
   Linder, R. Holmes. 0.76-m f/3.0 astrograph + CCD0.81-m f/4.0 astrograph +
   CCD0.61-m f/4.5 astrograph + CCD0.40-m f/5.32 astrograph + CCD.

Orbital elements:  P11DAze
   Perihelion 2023 Apr 6.14597 +/- 0.0793 TT =  3:30:11 (JD 2460040.64597)
Epoch 2023 Mar 20.0 TT = JDT 2460023.5   Earth MOID: 0.0676      AutoNEOCP
M 348.86891688 +/- 0.036            (J2000 ecliptic)
n   0.64919526 +/- 0.00102          Peri.    8.49205 +/- 0.09
a   1.32094829 +/- 0.00139          Node   183.74676 +/- 0.006
e   0.1936694 +/- 0.00089           Incl.    6.56232 +/- 0.011
P   1.52/554.52d           H 24.99  G  0.15   U  8.1
q 1.06512096 +/- 0.000182    Q 1.57677562 +/- 0.00282
From 20 observations 2023 Mar. 18-20 (42.0 hr); mean residual 0".17
Residuals in arcseconds: 
230318 F51  .21-  .11-    230318 F52  .18-  .00     230320 H21  .13-  .06+    
230318 F51  .10+  .35-    230318 F52  .05+  .15+    230320 H21  .23-  .08+    
230318 F51  .03+  .14-    230318 F52  .02+  .11-    230320 H21  .20-  .23+    
230318 F51  .17+  .49+    230318 F52  .03-  .11-    230320 807  .15+  .07-    
230318 F51  .09+  .26+    230319 807  .03+  .02+    230320 807  .25+  .09-    
230318 F51  .13+  .12+    230319 807  .13+  .14+    230320 807  .21+  .26-    
230318 F51  .16-  .18-    230319 807  .18+  .20-    

Ephemerides (geocentric):
Date (UTC) HH   RA             Dec           delta  r     elong  mag " sig PA
---- --------  ------------   ------------  ------ ------ -----  --- --------
2023 03 20 10  09 17 40.486   +05 24 19.57  .09748 1.0721 139.9 21.6 .032 171
2023 03 20 11  09 17 46.894   +05 26 49.02  .09744 1.0721 139.9 21.6 .037 177
2023 03 20 12  09 17 53.318   +05 29 18.56  .09741 1.0721 139.8 21.6 .043   1
2023 03 20 13  09 17 59.757   +05 31 48.19  .09737 1.0720 139.8 21.6 .048   5
2023 03 20 14  09 18 06.211   +05 34 17.90  .09734 1.0720 139.8 21.6 .055   8
2023 03 20 15  09 18 12.679   +05 36 47.71  .09730 1.0720 139.8 21.6 .061  10
2023 03 20 16  09 18 19.163   +05 39 17.60  .09727 1.0719 139.8 21.6 .068  12
2023 03 20 17  09 18 25.662   +05 41 47.57  .09723 1.0719 139.8 21.6 .075  14
2023 03 20 18  09 18 32.177   +05 44 17.64  .09720 1.0719 139.7 21.6 .083  16
2023 03 20 19  09 18 38.706   +05 46 47.78  .09717 1.0718 139.7 21.6 .091  17
2023 03 20 20  09 18 45.250   +05 49 18.02  .09713 1.0718 139.7 21.6 .099  18
2023 03 20 21  09 18 51.810   +05 51 48.33  .09710 1.0718 139.7 21.6 .108  19
2023 03 20 22  09 18 58.385   +05 54 18.74  .09706 1.0717 139.7 21.6 .117  20
2023 03 20 23  09 19 04.975   +05 56 49.22  .09703 1.0717 139.6 21.6 .126  21
2023 03 21 00  09 19 11.580   +05 59 19.79  .09700 1.0717 139.6 21.6 .136  22
2023 03 21 01  09 19 18.200   +06 01 50.44  .09696 1.0716 139.6 21.6 .145  23
2023 03 21 02  09 19 24.835   +06 04 21.17  .09693 1.0716 139.6 21.6 .156  23
2023 03 21 03  09 19 31.486   +06 06 51.98  .09690 1.0716 139.6 21.6 .166  24
2023 03 21 04  09 19 38.152   +06 09 22.87  .09686 1.0715 139.6 21.6 .177  25
2023 03 21 05  09 19 44.833   +06 11 53.85  .09683 1.0715 139.5 21.6 .188  25
2023 03 21 06  09 19 51.529   +06 14 24.90  .09680 1.0715 139.5 21.6 .199  26
2023 03 21 07  09 19 58.241   +06 16 56.03  .09677 1.0714 139.5 21.6 .211  26
2023 03 21 08  09 20 04.968   +06 19 27.24  .09673 1.0714 139.5 21.6 .223  26
2023 03 21 09  09 20 11.710   +06 21 58.53  .09670 1.0714 139.5 21.6 .235  27
2023 03 21 10  09 20 18.468   +06 24 29.90  .09667 1.0713 139.5 21.6 .248  27
2023 03 21 11  09 20 25.240   +06 27 01.34  .09664 1.0713 139.4 21.6 .261  28
2023 03 21 12  09 20 32.028   +06 29 32.86  .09660 1.0713 139.4 21.6 .274  28
2023 03 21 13  09 20 38.832   +06 32 04.45  .09657 1.0712 139.4 21.6 .288  28
2023 03 21 14  09 20 45.650   +06 34 36.12  .09654 1.0712 139.4 21.6 .302  29
2023 03 21 15  09 20 52.484   +06 37 07.87  .09651 1.0712 139.4 21.6 .316  29
2023 03 21 16  09 20 59.334   +06 39 39.69  .09648 1.0711 139.3 21.6 .331  29
2023 03 21 17  09 21 06.199   +06 42 11.58  .09644 1.0711 139.3 21.6 .346  29
2023 03 21 18  09 21 13.079   +06 44 43.55  .09641 1.0711 139.3 21.6 .361  30
2023 03 21 19  09 21 19.974   +06 47 15.58  .09638 1.0710 139.3 21.6 .376  30
2023 03 21 20  09 21 26.885   +06 49 47.69  .09635 1.0710 139.3 21.6 .392  30
2023 03 21 21  09 21 33.811   +06 52 19.88  .09632 1.0710 139.3 21.6 .408  30
2023 03 21 22  09 21 40.753   +06 54 52.13  .09629 1.0709 139.2 21.6 .425  31
2023 03 21 23  09 21 47.710   +06 57 24.45  .09626 1.0709 139.2 21.6 .441  31
2023 03 22 00  09 21 54.683   +06 59 56.84  .09623 1.0709 139.2 21.6 .458  31
2023 03 22 01  09 22 01.671   +07 02 29.31  .09620 1.0708 139.2 21.6 .476  31
2023 03 22 02  09 22 08.674   +07 05 01.84  .09616 1.0708 139.2 21.6 .494  31
2023 03 22 03  09 22 15.693   +07 07 34.43  .09613 1.0708 139.1 21.6 .512  31
2023 03 22 04  09 22 22.727   +07 10 07.10  .09610 1.0707 139.1 21.6 .530  32
2023 03 22 05  09 22 29.777   +07 12 39.83  .09607 1.0707 139.1 21.6 .549  32
2023 03 22 06  09 22 36.842   +07 15 12.63  .09604 1.0707 139.1 21.6 .568  32
2023 03 22 07  09 22 43.923   +07 17 45.50  .09601 1.0707 139.1 21.6 .587  32
2023 03 22 08  09 22 51.019   +07 20 18.43  .09598 1.0706 139.0 21.6 .606  32
2023 03 22 09  09 22 58.131   +07 22 51.42  .09595 1.0706 139.0 21.6 .626  32